Date String (YYYY-MM-DD hh:mm:ss) UTC,Instrument flags,absolute air pressure of the measurement (hPa),sample flow rate (lpm),inlet stack bypass flow (lpm),air temperature of the measurement (°C),ambient temperature measured by the external sensor (°C),aerosol sample conditioner tube jacket temperature (°C),OPC LED temperature (°C),internal box temperature (°C),relative humidity of the measurement (%),span deviation,mass concentration of particles derived from Lorenz-Mie calculation of OPC scattering (μg/m³),mass concentration of particles derived from Lorenz-Mie calculation of OPC scattering (μg/m³),mass concentration of particles derived from Lorenz-Mie calculation of OPC scattering (μg/m³)
DateTimeUTC,F1_M11,P_M11,Q1_M11,Q2_M11,T1_M11,T2_M11,T3_M11,T4_M11,T5_M11,U1_M11,ZSPAN_M11,X0_M11,X2_M11,X1_M11
2023-12-27 01:00:00,SystemResetWarning,0825.5,5.00,000.00,019.3,018.5,000.0,027.6,020.6,13.8,0000.0,0000.39,0000.24,0000.16
2023-12-27 01:01:00,SystemResetWarning,0825.5,5.00,000.00,019.3,018.5,000.0,027.6,020.6,13.9,0000.0,0000.40,0000.24,0000.16
2023-12-27 01:02:00,SystemResetWarning,0825.5,5.00,000.00,019.3,018.5,000.0,027.6,020.5,13.7,0000.0,0000.40,0000.24,0000.16
2023-12-27 01:03:00,SystemResetWarning,0825.6,4.99,000.00,019.3,018.5,000.0,027.6,020.6,13.6,0000.0,0000.91,0000.25,0000.16
2023-12-27 01:04:00,SystemResetWarning,0825.6,5.00,000.00,019.3,018.5,000.0,027.6,020.6,13.8,0000.0,0001.13,0000.27,0000.17
2023-12-27 01:05:00,SystemResetWarning,0825.6,5.00,000.00,019.3,018.5,000.0,027.6,020.6,13.8,0000.0,0001.14,0000.28,0000.17
2023-12-27 01:06:00,SystemResetWarning,0825.6,5.00,000.00,019.3,018.6,000.0,027.6,020.6,14.0,0000.0,0001.14,0000.28,0000.17
2023-12-27 01:07:00,SystemResetWarning,0825.7,5.00,000.00,019.3,018.5,000.0,027.6,020.6,13.7,0000.0,0001.11,0000.27,0000.17
2023-12-27 01:08:00,SystemResetWarning,0825.7,5.00,000.00,019.3,018.5,000.0,027.6,020.5,13.9,0000.0,0001.12,0000.27,0000.17
2023-12-27 01:09:00,SystemResetWarning,0825.7,5.00,000.00,019.3,018.5,000.0,027.6,020.6,14.0,0000.0,0001.08,0000.26,0000.17
2023-12-27 01:10:00,SystemResetWarning,0825.7,5.01,000.00,019.3,018.6,000.0,027.6,020.5,14.1,0000.0,0001.09,0000.26,0000.17
2023-12-27 01:11:00,SystemResetWarning,0825.7,5.01,000.00,019.3,018.6,000.0,027.6,020.6,14.2,0000.0,0001.07,0000.24,0000.17
2023-12-27 01:12:00,SystemResetWarning,0825.7,5.00,000.00,019.3,018.6,000.0,027.6,020.6,14.1,0000.0,0001.04,0000.24,0000.17
2023-12-27 01:13:00,SystemResetWarning,0825.7,4.99,000.00,019.3,018.6,000.0,027.6,020.6,13.9,0000.0,0001.14,0000.28,0000.17
2023-12-27 01:14:00,SystemResetWarning,0825.7,4.99,000.00,019.3,018.6,000.0,027.6,020.6,13.8,0000.0,0000.80,0000.29,0000.16
2023-12-27 01:15:00,SystemResetWarning,0825.7,5.00,000.00,019.3,018.6,000.0,027.6,020.6,13.9,0000.0,0000.58,0000.28,0000.16
2023-12-27 01:16:00,SystemResetWarning,0825.7,5.01,000.00,019.3,018.5,000.0,027.6,020.6,13.8,0000.0,0000.57,0000.27,0000.16
2023-12-27 01:17:00,SystemResetWarning,0825.7,5.01,000.00,019.3,018.5,000.0,027.6,020.6,13.9,0000.0,0000.57,0000.27,0000.15
2023-12-27 01:18:00,SystemResetWarning,0825.7,5.01,000.00,019.3,018.5,000.0,027.6,020.6,13.8,0000.0,0000.57,0000.27,0000.16
2023-12-27 01:19:00,SystemResetWarning,0825.7,5.00,000.00,019.3,018.5,000.0,027.6,020.6,13.9,0000.0,0000.58,0000.27,0000.16
2023-12-27 01:20:00,SystemResetWarning,0825.8,5.00,000.00,019.3,018.5,000.0,027.6,020.6,13.8,0000.0,0000.63,0000.28,0000.16
2023-12-27 01:21:00,SystemResetWarning,0825.8,5.00,000.00,019.3,018.5,000.0,027.6,020.6,13.8,0000.0,0000.70,0000.29,0000.16
2023-12-27 01:22:00,SystemResetWarning,0825.8,5.00,000.00,019.3,018.5,000.0,027.6,020.6,13.8,0000.0,0000.69,0000.29,0000.16
2023-12-27 01:23:00,SystemResetWarning,0825.8,5.00,000.00,019.3,018.5,000.0,027.6,020.6,14.0,0000.0,0000.69,0000.29,0000.15
2023-12-27 01:24:00,SystemResetWarning,0825.8,5.00,000.00,019.3,018.5,000.0,027.6,020.6,13.9,0000.0,0000.64,0000.26,0000.16
2023-12-27 01:25:00,SystemResetWarning,0825.8,5.00,000.00,019.3,018.5,000.0,027.6,020.6,13.9,0000.0,0000.56,0000.25,0000.16
2023-12-27 01:26:00,SystemResetWarning,0825.8,5.00,000.00,019.3,018.5,000.0,027.6,020.6,13.8,0000.0,0000.49,0000.26,0000.17
2023-12-27 01:27:00,SystemResetWarning,0825.9,5.00,000.00,019.3,018.5,000.0,027.6,020.6,13.8,0000.0,0000.60,0000.27,0000.17
2023-12-27 01:28:00,SystemResetWarning,0825.9,4.99,000.00,019.3,018.6,000.0,027.6,020.6,14.0,0000.0,0000.86,0000.28,0000.17
2023-12-27 01:29:00,SystemResetWarning,0825.9,5.01,000.00,019.3,018.6,000.0,027.6,020.6,14.1,0000.0,0000.88,0000.29,0000.17
2023-12-27 01:30:00,SystemResetWarning,0826.0,5.01,000.00,019.3,018.6,000.0,027.6,020.6,14.0,0000.0,0000.86,0000.28,0000.17
2023-12-27 01:31:00,SystemResetWarning,0825.9,5.00,000.00,019.3,018.6,000.0,027.6,020.6,13.9,0000.0,0000.78,0000.26,0000.16
2023-12-27 01:32:00,SystemResetWarning,0825.9,4.99,000.00,019.3,018.6,000.0,027.6,020.6,13.9,0000.0,0000.70,0000.25,0000.16
2023-12-27 01:33:00,SystemResetWarning,0825.9,4.99,000.00,019.3,018.6,000.0,027.6,020.7,13.9,0000.0,0000.69,0000.24,0000.16
2023-12-27 01:34:00,SystemResetWarning,0825.9,5.00,000.00,019.3,018.6,000.0,027.6,020.7,13.7,0000.0,0000.72,0000.25,0000.17
2023-12-27 01:35:00,SystemResetWarning,0825.9,5.01,000.00,019.3,018.6,000.0,027.6,020.7,13.8,0000.0,0000.71,0000.25,0000.17
2023-12-27 01:36:00,SystemResetWarning,0825.9,5.01,000.00,019.3,018.6,000.0,027.7,020.7,13.9,0000.0,0000.68,0000.23,0000.16
2023-12-27 01:37:00,SystemResetWarning,0825.9,5.00,000.00,019.3,018.7,000.0,027.7,020.6,14.1,0000.0,0000.65,0000.22,0000.16
2023-12-27 01:38:00,SystemResetWarning,0825.9,5.00,000.00,019.3,018.7,000.0,027.7,020.6,13.9,0000.0,0000.66,0000.21,0000.16
2023-12-27 01:39:00,SystemResetWarning,0825.9,5.00,000.00,019.3,018.7,000.0,027.7,020.6,13.9,0000.0,0000.38,0000.21,0000.15
2023-12-27 01:40:00,SystemResetWarning,0825.9,5.00,000.00,019.3,018.7,000.0,027.7,020.6,13.9,0000.0,0000.37,0000.20,0000.15
2023-12-27 01:41:00,SystemResetWarning,0825.9,5.00,000.00,019.3,018.7,000.0,027.6,020.6,13.9,0000.0,0000.46,0000.23,0000.16
2023-12-27 01:42:00,SystemResetWarning,0826.0,5.00,000.00,019.3,018.7,000.0,027.7,020.6,13.9,0000.0,0000.48,0000.24,0000.16
2023-12-27 01:43:00,SystemResetWarning,0826.0,5.00,000.00,019.3,018.7,000.0,027.7,020.6,13.9,0000.0,0000.51,0000.26,0000.16
2023-12-27 01:44:00,SystemResetWarning,0826.1,5.00,000.00,019.3,018.7,000.0,027.7,020.6,13.9,0000.0,0000.53,0000.26,0000.16
2023-12-27 01:45:00,SystemResetWarning,0826.2,5.00,000.00,019.3,018.7,000.0,027.7,020.6,13.9,0000.0,0000.52,0000.26,0000.16
2023-12-27 01:46:00,SystemResetWarning,0826.2,5.00,000.00,019.3,018.7,000.0,027.7,020.6,13.8,0000.0,0000.51,0000.25,0000.16
2023-12-27 01:47:00,SystemResetWarning,0826.2,5.00,000.00,019.3,018.7,000.0,027.7,020.7,13.8,0000.0,0000.54,0000.26,0000.16
2023-12-27 01:48:00,SystemResetWarning,0826.2,5.00,000.00,019.3,018.7,000.0,027.7,020.7,13.7,0000.0,0000.67,0000.30,0000.17
2023-12-27 01:49:00,SystemResetWarning,0826.2,5.00,000.00,019.3,018.7,000.0,027.7,020.6,13.6,0000.0,0000.68,0000.31,0000.17
2023-12-27 01:50:00,SystemResetWarning,0826.2,5.00,000.00,019.3,018.8,000.0,027.7,020.7,13.7,0000.0,0000.62,0000.30,0000.17
2023-12-27 01:51:00,SystemResetWarning,0826.2,5.00,000.00,019.4,018.8,000.0,027.7,020.7,13.5,0000.0,0000.60,0000.30,0000.17
2023-12-27 01:52:00,SystemResetWarning,0826.2,5.00,000.00,019.4,018.8,000.0,027.7,020.7,13.5,0000.0,0000.51,0000.27,0000.17
2023-12-27 01:53:00,SystemResetWarning,0826.2,5.00,000.00,019.4,018.8,000.0,027.7,020.7,13.5,0000.0,0000.50,0000.27,0000.17
2023-12-27 01:54:00,SystemResetWarning,0826.2,5.00,000.00,019.4,018.8,000.0,027.7,020.7,13.3,0000.0,0000.47,0000.25,0000.17
2023-12-27 01:55:00,SystemResetWarning,0826.3,5.00,000.00,019.4,018.8,000.0,027.7,020.7,13.4,0000.0,0000.52,0000.27,0000.17
2023-12-27 01:56:00,SystemResetWarning,0826.2,5.00,000.00,019.4,018.8,000.0,027.7,020.6,13.6,0000.0,0000.53,0000.27,0000.17
2023-12-27 01:57:00,SystemResetWarning,0826.3,5.00,000.00,019.4,018.8,000.0,027.7,020.7,13.6,0000.0,0000.53,0000.27,0000.18
2023-12-27 01:58:00,SystemResetWarning,0826.3,5.00,000.00,019.4,018.8,000.0,027.7,020.7,13.5,0000.0,0000.60,0000.27,0000.17
2023-12-27 01:59:00,SystemResetWarning,0826.2,4.99,000.00,019.4,018.8,000.0,027.7,020.7,13.4,0000.0,0000.59,0000.25,0000.17
